Temperature
23 20 20 20 21 22 22 22 22 23 24 23 22 22 22 22 22 22 22 21 21 21 21 21 21 21 21 20 20 19 19 19 19 19 18 18 18 18 18 18 18 18 18 17
21 20 21 22 23 23 22 22 22 23 24 24 22 22 22 22 22 22 22 21 21 21 21 21 21 21 20 20 20 19 19 19 19 19 19 18 18 18 18 18 18 17 17 17
21 21 23 24 23 23 23 22 22 22 23 23 22 21 21 21 21 22 21 21 21 21 21 21 21 20 20 20 20 19 19 19 19 18 18 18 18 18 18 18 17 17 17 17
21 23 24 24 24 24 23 24 24 24 22 20 22 20 20 20 20 20 21 21 21 21 21 21 21 20 20 20 19 19 19 19 19 18 18 18 18 18 18 18 17 17 17 17
22 23 24 24 24 24 23 24 24 24 22 20 20 20 20 20 20 20 20 21 21 21 20 21 20 20 20 19 19 19 19 19 18 18 18 18 18 18 17 17 17 17 17 17
23 24 24 24 25 25 24 23 22 20 19 20 20 20 19 19 20 20 20 20 20 21 20 20 20 20 19 19 19 19 18 18 18 18 18 18 18 17 17 17 17 17 17 17
23 23 24 25 24 24 23 20 19 19 18 19 20 20 19 20 20 20 20 20 20 20 20 20 19 19 19 19 19 18 18 18 18 18 18 18 18 17 17 17 17 17 17 17
21 22 23 24 24 23 22 20 19 19 19 19 20 19 19 20 21 21 21 20 20 20 20 20 19 19 19 19 19 18 18 18 18 18 18 18 17 17 17 17 17 17 17 17
21 21 24 25 25 24 22 21 20 19 19 19 19 19 20 20 20 20 20 20 20 20 19 19 19 19 19 19 18 18 18 18 18 18 17 17 17 17 17 16 16 16 16 16
21 21 23 24 24 24 23 21 18 18 19 19 19 19 19 19 18 19 18 19 19 19 19 19 19 18 18 18 18 18 18 18 18 17 17 17 17 16 16 16 16 16 16 16
21 20 21 22 23 22 22 21 19 17 18 18 19 19 20 19 18 18 18 19 19 18 18 18 18 18 18 18 18 17 17 17 17 17 17 16 16 16 16 16 16 16 16 15
19 18 19 21 22 23 22 21 19 19 18 17 17 18 20 18 18 18 18 19 18 18 18 18 18 18 18 18 17 17 17 17 17 17 16 16 16 16 16 16 16 16 15 15
19 17 18 19 20 21 21 21 19 18 17 17 17 18 19 18 18 18 18 18 18 18 18 18 17 17 17 17 17 17 17 17 17 16 16 16 16 15 15 15 15 15 15 15
19 17 18 19 19 20 20 21 20 18 17 17 18 18 18 18 17 17 18 18 18 18 17 17 17 17 17 16 16 16 16 16 16 16 15 15 15 15 15 15 15 15 15 15
17 17 18 19 20 21 21 21 21 20 19 18 18 18 17 17 17 17 17 17 18 17 17 17 16 16 16 16 16 16 16 16 15 15 15 15 15 15 15 14 14 14 14 14
15 16 18 19 20 20 20 20 20 20 19 19 18 18 17 17 17 17 17 17 16 16 16 16 16 16 16 15 15 15 15 15 15 15 15 15 14 14 14 14 14 14 14 14
15 15 16 17 18 19 18 18 19 19 18 18 17 17 16 16 16 16 16 16 16 16 16 16 16 16 15 15 15 15 15 14 14 14 14 14 14 14 14 14 14 14 14 13
15 14 14 15 17 17 17 18 18 18 17 17 17 16 16 16 16 16 16 16 16 16 16 16 15 15 15 15 15 14 14 14 14 14 13 13 13 13 13 13 13 14 13 13
14 14 14 14 15 16 17 18 18 17 16 15 15 15 15 15 15 15 16 16 16 16 16 16 15 15 15 15 14 14 14 14 13 13 13 13 13 13 13 13 13 13 13 13
14 14 14 14 15 15 16 17 18 16 14 15 15 14 15 15 13 13 15 16 16 15 15 15 15 15 15 14 14 14 13 13 13 13 13 13 13 13 13 13 13 13 13 13
14 14 14 14 14 15 15 17 17 16 14 15 15 14 14 14 14 14 15 15 15 15 15 15 15 15 14 14 14 13 13 13 13 13 13 13 13 13 13 13 13 13 13 13
13 13 13 13 14 14 15 15 15 14 14 15 15 15 14 14 14 14 14 14 14 15 15 14 14 14 14 13 13 13 13 13 12 12 13 12 12 12 12 12 12 12 12 12
12 12 12 12 12 13 15 15 15 15 14 14 14 14 14 14 13 13 14 14 14 14 14 14 14 13 13 13 13 13 13 12 12 12 12 12 12 12 12 12 12 12 12 12
13 12 11 12 12 13 14 14 15 15 14 14 14 14 14 13 13 13 13 13 13 13 13 13 13 13 13 12 12 12 12 12 12 11 12 12 12 12 12 12 12 12 12 12
12 12 11 11 12 13 13 14 14 14 14 14 13 13 13 13 13 13 12 12 12 13 12 12 12 12 12 12 12 11 11 11 11 11 11 11 11 11 11 11 11 11 12 12
11 11 11 11 12 11 12 13 13 13 13 13 13 13 13 13 12 12 12 12 12 12 12 12 12 12 12 11 11 11 11 11 11 11 11 11 11 11 11 11 11 11 11 11
Wind_Speed
2 2 6 9 9 7 5 5 7 8 5 1 3 5 5 4 5 6 8 10 9 8 7 6 8 9 9 8 8 8 8 7 6 4 4 3 3 2 2 3 5 6 7 7
2 6 11 8 7 6 7 7 7 7 3 1 2 4 5 6 7 8 9 10 10 8 6 6 7 8 8 9 9 9 8 7 6 5 4 3 2 2 3 2 3 5 6 6
9 8 7 7 7 7 8 8 8 5 4 3 1 4 4 4 3 5 6 8 9 12 12 10 8 8 9 9 9 9 8 7 6 5 3 3 2 2 1 2 2 2 5 5
8 9 7 7 8 8 8 9 7 5 1 3 1 3 7 4 2 4 6 7 9 10 10 10 10 10 10 9 9 8 8 7 6 5 5 5 4 3 3 3 3 2 3 4
7 6 6 8 10 7 7 6 6 5 3 1 2 1 6 2 3 6 7 9 10 10 11 11 11 10 9 8 7 7 7 6 6 6 6 5 3 3 2 2 3 3 2 2
9 6 6 7 7 5 3 1 2 3 3 2 5 3 5 4 7 6 7 8 9 9 11 10 10 10 8 7 6 7 7 6 6 6 6 6 5 4 4 3 3 2 1 1
6 7 6 5 3 2 2 4 2 4 2 5 4 3 6 7 6 8 10 10 9 9 10 10 10 9 9 8 8 8 8 6 6 6 6 6 6 6 5 4 4 3 2 2
4 7 6 4 6 6 5 8 7 5 5 4 2 4 5 6 3 4 8 9 9 9 8 10 11 10 10 10 9 8 8 7 6 6 5 4 5 4 3 4 4 4 3 3
5 6 5 4 3 7 4 4 8 6 3 2 3 4 4 2 2 3 6 8 9 10 9 9 10 9 9 10 8 8 8 7 6 5 5 4 4 4 4 3 3 3 2 3
5 4 5 4 2 1 5 6 5 5 4 3 3 4 5 4 3 3 5 7 9 10 9 9 8 9 8 8 8 7 7 7 6 5 5 5 4 4 4 3 3 3 3 2
3 3 5 2 1 3 1 2 4 4 5 5 3 5 4 9 7 7 6 6 8 9 9 8 7 7 8 7 6 6 6 6 5 5 4 4 3 3 3 3 3 3 3 3
2 4 3 5 5 3 5 5 5 4 3 4 4 6 2 6 6 7 6 6 6 8 9 8 7 6 6 6 6 5 5 6 6 5 5 4 4 3 3 2 2 3 3 3
2 4 0 6 6 4 1 1 2 4 4 4 4 5 1 4 5 6 8 7 6 7 8 7 7 6 6 6 5 5 5 5 5 5 5 4 4 4 3 3 2 3 3 3
2 3 5 7 6 3 2 2 1 3 2 3 5 4 1 3 4 5 7 8 7 6 7 7 6 5 5 5 5 5 4 4 5 5 5 4 4 4 3 3 3 3 3 3
4 2 2 4 3 1 1 3 2 1 4 5 5 5 6 5 6 6 7 8 9 7 6 6 6 5 4 4 4 4 4 3 4 4 4 4 4 3 3 3 3 3 3 3
4 1 0 1 1 1 2 4 2 1 1 3 3 2 3 4 4 6 7 8 8 8 7 6 6 6 5 5 5 4 3 3 4 4 4 3 3 3 2 2 2 2 2 2
2 3 2 3 3 3 3 3 0 1 0 3 4 5 4 5 5 5 5 7 8 8 7 7 6 6 5 5 5 5 4 3 3 3 3 3 3 3 2 3 2 2 2 2
5 4 3 2 1 3 5 2 3 5 5 3 3 3 6 6 5 4 4 5 5 6 6 6 5 4 3 3 4 4 4 3 3 3 3 3 3 3 2 2 2 2 2 2
6 6 4 3 3 3 3 2 0 3 2 3 3 3 3 5 5 3 2 4 3 4 5 5 5 5 4 4 4 4 4 3 3 3 3 3 4 3 3 3 3 3 2 2
3 5 5 3 4 5 5 5 1 5 1 2 3 4 3 4 2 2 1 3 3 3 4 4 4 4 4 3 4 4 4 3 3 3 4 3 3 4 4 3 3 2 3 3
2 2 3 4 4 3 5 5 2 3 5 3 3 4 5 3 4 3 1 2 3 4 4 4 4 4 3 3 5 4 3 3 3 2 2 2 2 3 4 3 2 2 2 2
2 2 2 2 3 5 5 2 3 4 2 3 3 3 4 4 4 3 3 3 3 4 4 3 4 3 3 4 4 4 3 3 2 1 1 2 2 3 2 2 2 3 2 3
2 3 3 4 4 3 1 3 2 3 3 2 2 2 5 5 4 4 3 3 3 3 2 1 2 2 2 3 4 4 3 2 1 1 2 2 2 3 3 3 3 3 3 3
3 1 2 2 1 1 2 3 3 3 3 2 3 3 5 5 5 4 4 3 2 1 1 1 2 2 1 1 2 3 3 3 2 2 2 2 2 2 2 2 3 3 4 4
2 2 2 1 1 2 3 2 3 4 5 5 4 3 4 6 5 4 3 2 2 1 1 2 3 2 1 1 1 2 2 3 2 2 2 2 3 3 3 3 4 4 5 5
1 2 3 4 5 4 3 1 3 4 4 4 5 3 3 4 4 4 3 2 2 1 1 1 2 2 2 2 2 2 2 2 2 2 2 3 3 3 3 4 4 4 5 6
Wind_Direction
231 115 229 227 210 211 227 253 262 263 257 273 227 217 217 207 173 169 170 169 168 165 167 156 152 151 147 146 148 157 152 155 150 147 147 147 164 176 169 173 166 159 156 150
355 252 238 235 231 220 237 254 267 286 283 234 228 243 221 203 190 182 176 172 170 164 157 155 153 151 151 155 158 159 161 162 161 166 165 164 164 177 177 168 158 161 159 155
210 239 232 232 242 233 241 220 226 239 309 337 55 321 268 238 193 170 170 167 167 167 167 168 166 159 153 157 164 165 164 163 161 158 139 118 85 67 92 148 169 178 166 163
235 243 242 242 239 223 243 225 213 224 210 284 97 271 272 232 222 181 183 174 175 170 163 163 164 162 165 171 166 158 160 160 160 152 149 152 161 177 197 180 181 189 180 172
241 228 230 241 238 216 229 224 209 209 180 281 324 199 279 262 231 217 194 181 176 172 166 165 163 164 168 166 167 160 155 159 165 160 160 163 169 187 183 159 161 177 192 182
245 242 216 231 241 206 197 262 10 36 79 257 247 201 267 245 228 217 195 181 174 167 164 163 161 155 159 164 163 157 153 164 170 164 164 166 170 167 159 161 164 179 192 196
280 272 255 231 245 268 122 113 33 355 345 250 241 197 247 254 232 201 188 182 170 163 157 154 152 155 161 166 164 161 159 165 168 165 169 171 168 167 173 175 174 173 175 194
236 272 250 227 197 199 201 156 166 195 221 262 295 221 249 257 253 182 168 165 157 154 151 151 154 157 163 165 159 159 163 168 168 163 168 168 163 165 173 174 170 178 186 196
198 254 266 242 218 167 178 201 177 157 194 196 255 265 301 333 35 89 132 143 154 154 152 150 155 156 157 158 161 166 168 171 172 168 162 162 164 156 160 165 160 172 185 191
173 240 274 270 6 333 167 164 103 131 171 223 249 240 233 220 190 151 141 153 156 150 147 143 145 151 155 161 161 166 170 176 173 168 169 169 161 161 164 155 156 167 177 181
149 180 297 334 217 230 92 106 127 141 160 167 221 261 228 200 186 168 169 160 156 155 151 148 148 150 148 150 152 161 171 169 164 169 167 163 163 161 155 157 165 169 173 173
157 143 251 262 260 199 161 174 153 165 221 171 179 253 269 177 175 154 149 149 147 152 147 146 145 138 129 133 140 150 158 160 164 163 158 162 161 154 154 161 169 164 170 176
94 121 299 324 329 352 53 143 148 149 141 164 182 250 323 134 138 135 133 133 133 131 131 132 131 132 137 140 144 149 154 155 155 152 151 153 156 160 170 179 177 167 175 181
103 126 171 205 222 227 273 318 41 116 148 199 205 217 230 153 146 134 135 136 131 129 130 133 134 134 136 142 145 149 150 146 146 150 154 161 170 171 173 173 173 176 181 185
78 120 199 213 227 210 270 289 288 199 193 191 216 199 210 190 174 153 140 134 130 130 132 141 141 134 129 133 143 149 148 143 145 148 160 177 174 168 163 165 176 185 189 191
68 107 22 266 266 37 351 331 302 296 175 166 152 209 202 168 136 127 133 134 134 140 147 148 142 137 143 150 158 150 148 160 156 156 169 170 155 156 160 168 168 165 176 184
115 124 110 253 278 353 318 293 291 95 131 161 187 214 143 112 123 152 153 144 151 157 156 153 150 156 161 165 161 157 158 153 150 151 151 150 151 150 166 172 159 172 194 194
155 141 144 203 35 219 245 285 92 89 60 57 118 132 138 139 134 117 123 137 155 160 157 153 151 155 163 150 140 139 134 139 147 155 161 163 163 172 179 170 184 204 210 208
168 154 145 151 178 247 285 305 174 121 62 9 97 105 121 124 84 66 112 137 166 164 164 162 157 155 153 148 143 133 137 151 157 169 182 182 178 182 185 196 206 211 206 220
78 126 138 154 174 213 249 287 264 113 125 305 106 123 124 102 122 227 216 128 128 128 140 143 138 127 134 149 140 131 141 151 168 197 203 200 188 185 198 216 223 222 212 226
30 56 151 176 195 242 279 300 39 139 222 225 151 140 127 133 181 190 150 109 120 111 116 115 123 134 155 157 140 141 152 192 210 215 211 198 211 205 206 212 221 231 233 239
173 159 192 163 181 244 308 39 131 197 196 142 131 134 124 128 123 118 101 94 101 96 91 112 132 159 174 162 150 157 188 207 196 193 210 219 232 228 221 209 229 237 231 233
146 183 180 179 205 240 299 139 168 150 129 119 124 123 119 124 123 114 99 96 99 100 96 100 142 154 182 175 164 178 208 186 172 196 238 248 253 248 233 219 228 237 235 230
332 38 94 85 7 355 60 79 72 95 110 104 111 107 109 121 124 119 117 109 104 103 127 146 143 150 225 215 177 192 203 176 170 215 247 256 267 278 279 259 245 237 237 240
282 22 51 69 292 20 19 57 86 82 93 96 94 99 115 124 125 128 130 139 144 124 213 161 156 166 224 272 239 218 210 179 184 222 245 261 268 268 273 269 250 243 238 228
271 178 173 224 228 200 235 234 111 105 104 112 110 96 106 123 131 128 141 152 145 160 161 139 141 161 203 218 244 252 227 191 191 234 249 250 253 262 262 263 279 281 266 256
Height
1491 1497 1501 1497 1497 1498 1499 1502 1503 1496 1488 1492 1495 1496 1493 1492 1493 1493 1494 1495 1497 1499 1502 1505 1507 1508 1510 1513 1516 1518 1520 1522 1524 1525 1527 1528 1529 1531 1532 1533 1534 1534 1535 1535
1496 1498 1490 1488 1490 1493 1496 1501 1501 1494 1487 1491 1495 1495 1490 1489 1489 1489 1490 1492 1494 1497 1500 1503 1505 1507 1508 1510 1512 1515 1518 1520 1522 1524 1526 1527 1529 1530 1531 1532 1533 1533 1534 1535
1495 1489 1483 1486 1488 1491 1493 1498 1498 1496 1491 1490 1495 1500 1493 1489 1488 1487 1488 1490 1492 1493 1495 1499 1502 1504 1506 1509 1511 1514 1516 1518 1520 1523 1525 1526 1528 1529 1530 1530 1531 1532 1533 1533
1488 1481 1481 1484 1485 1486 1494 1484 1486 1489 1499 1506 1500 1517 1499 1491 1490 1488 1488 1489 1490 1492 1494 1497 1500 1502 1504 1506 1509 1512 1514 1516 1518 1521 1523 1524 1525 1526 1527 1529 1530 1531 1532 1532
1484 1478 1480 1482 1478 1479 1484 1478 1481 1485 1495 1505 1503 1513 1505 1493 1494 1489 1487 1487 1488 1490 1493 1495 1497 1500 1503 1506 1508 1510 1512 1515 1517 1519 1521 1522 1523 1525 1526 1527 1528 1529 1530 1531
1475 1472 1474 1473 1471 1473 1476 1481 1486 1493 1503 1516 1506 1511 1509 1497 1490 1486 1485 1485 1486 1489 1492 1494 1496 1499 1502 1505 1508 1510 1511 1513 1515 1517 1518 1519 1520 1522 1524 1525 1526 1527 1528 1529
1479 1473 1469 1469 1473 1474 1478 1496 1514 1517 1522 1517 1501 1505 1504 1487 1481 1480 1481 1483 1485 1487 1490 1493 1495 1498 1501 1503 1506 1508 1510 1511 1513 1515 1516 1518 1519 1521 1522 1523 1524 1525 1526 1527
1489 1487 1469 1466 1470 1477 1479 1489 1513 1524 1524 1515 1502 1505 1494 1481 1478 1477 1478 1480 1483 1486 1489 1491 1494 1496 1498 1500 1503 1506 1507 1509 1511 1513 1514 1516 1517 1518 1520 1521 1522 1523 1524 1525
1486 1483 1465 1462 1461 1465 1477 1484 1485 1503 1506 1515 1509 1499 1487 1480 1479 1479 1479 1480 1482 1485 1488 1491 1493 1495 1496 1499 1501 1504 1506 1508 1509 1511 1513 1514 1516 1517 1518 1520 1521 1521 1522 1523
1473 1480 1468 1461 1460 1462 1467 1474 1490 1502 1514 1518 1509 1503 1498 1486 1483 1481 1481 1481 1482 1484 1487 1490 1492 1494 1496 1498 1500 1503 1504 1506 1507 1509 1511 1513 1514 1515 1517 1518 1519 1519 1520 1521
1468 1480 1475 1468 1469 1471 1472 1478 1486 1497 1501 1512 1516 1505 1480 1481 1479 1479 1480 1481 1482 1485 1487 1489 1491 1494 1495 1497 1499 1501 1502 1503 1505 1507 1509 1511 1512 1514 1515 1516 1517 1517 1518 1519
1468 1479 1484 1474 1463 1460 1466 1473 1483 1496 1500 1501 1507 1501 1474 1474 1475 1476 1478 1481 1483 1485 1486 1489 1491 1493 1494 1496 1498 1499 1500 1502 1503 1505 1507 1509 1511 1512 1513 1514 1515 1516 1516 1517
1469 1480 1492 1486 1479 1468 1469 1470 1475 1483 1493 1499 1504 1497 1474 1474 1474 1475 1478 1481 1484 1486 1487 1489 1491 1492 1494 1495 1497 1498 1499 1500 1502 1504 1506 1508 1509 1510 1511 1512 1513 1514 1514 1515
1465 1478 1486 1490 1485 1475 1473 1471 1471 1480 1493 1494 1492 1487 1479 1477 1476 1476 1478 1480 1483 1486 1488 1490 1491 1492 1493 1495 1496 1497 1498 1499 1501 1503 1505 1506 1507 1508 1509 1510 1511 1512 1512 1513
1467 1477 1474 1473 1469 1468 1470 1470 1469 1474 1478 1485 1483 1482 1478 1476 1476 1476 1478 1479 1481 1485 1488 1489 1490 1491 1493 1494 1495 1496 1497 1499 1500 1502 1503 1504 1505 1506 1507 1508 1509 1509 1510 1511
1470 1477 1474 1474 1468 1468 1470 1470 1468 1469 1471 1474 1476 1478 1473 1473 1475 1476 1478 1479 1480 1483 1487 1488 1488 1490 1491 1493 1494 1495 1496 1497 1498 1499 1500 1502 1503 1504 1504 1505 1506 1507 1508 1508
1473 1477 1481 1482 1472 1471 1480 1473 1470 1471 1470 1472 1477 1476 1472 1474 1475 1476 1477 1478 1480 1483 1486 1487 1488 1489 1490 1491 1492 1493 1494 1496 1496 1498 1498 1499 1500 1501 1502 1503 1504 1504 1505 1505
1471 1477 1483 1484 1480 1489 1481 1468 1467 1469 1472 1470 1471 1471 1471 1472 1474 1476 1478 1479 1480 1482 1483 1484 1486 1487 1489 1490 1491 1492 1493 1494 1495 1496 1496 1497 1498 1499 1500 1500 1501 1502 1502 1503
1463 1472 1481 1487 1487 1483 1474 1468 1468 1472 1477 1473 1472 1472 1473 1474 1475 1478 1479 1480 1481 1481 1482 1483 1484 1486 1488 1489 1490 1490 1491 1492 1492 1493 1494 1494 1495 1496 1497 1497 1498 1498 1499 1499
1463 1467 1477 1482 1485 1488 1477 1466 1464 1469 1480 1475 1472 1472 1473 1474 1480 1480 1479 1479 1480 1481 1482 1483 1484 1486 1487 1488 1489 1489 1489 1490 1490 1490 1491 1492 1492 1493 1494 1494 1495 1495 1496 1496
1472 1474 1478 1481 1484 1480 1470 1465 1464 1478 1480 1473 1471 1471 1472 1474 1476 1477 1478 1478 1479 1480 1481 1482 1483 1485 1486 1487 1487 1487 1487 1487 1488 1488 1489 1490 1491 1491 1491 1492 1492 1493 1493 1493
1475 1478 1479 1480 1484 1483 1468 1466 1470 1473 1470 1471 1470 1470 1471 1472 1473 1474 1476 1477 1479 1479 1479 1480 1482 1483 1485 1486 1485 1485 1485 1486 1486 1487 1487 1488 1488 1489 1489 1489 1490 1490 1490 1490
1473 1474 1475 1477 1479 1471 1468 1467 1468 1468 1469 1469 1470 1470 1471 1472 1473 1474 1475 1476 1477 1478 1479 1480 1481 1482 1483 1484 1484 1484 1484 1484 1484 1485 1485 1485 1486 1486 1486 1486 1486 1487 1487 1486
1471 1468 1471 1473 1472 1469 1468 1468 1468 1468 1468 1469 1470 1470 1471 1471 1472 1473 1475 1476 1477 1478 1479 1480 1481 1481 1481 1482 1483 1483 1483 1483 1483 1483 1483 1483 1484 1484 1484 1483 1483 1483 1483 1483
1472 1470 1473 1473 1471 1469 1468 1468 1468 1468 1467 1468 1469 1470 1470 1470 1472 1473 1474 1476 1477 1477 1478 1478 1479 1480 1480 1481 1481 1481 1481 1481 1481 1481 1481 1481 1481 1481 1480 1480 1480 1479 1479 1479
1470 1471 1473 1473 1469 1469 1468 1467 1467 1467 1467 1467 1468 1468 1469 1470 1471 1472 1474 1475 1475 1477 1477 1477 1478 1478 1478 1479 1479 1479 1479 1479 1478 1478 1478 1478 1478 1478 1477 1477 1476 1476 1476 1475